Date String (YYYY-MM-DD hh:mm:ss) UTC,Instrument flags,absolute air pressure of the measurement (hPa),sample flow rate (lpm),inlet stack bypass flow (lpm),air temperature of the measurement (°C),ambient temperature measured by the external sensor (°C),aerosol sample conditioner tube jacket temperature (°C),OPC LED temperature (°C),internal box temperature (°C),relative humidity of the measurement (%),span deviation,mass concentration of particles derived from Lorenz-Mie calculation of OPC scattering (μg/m³),mass concentration of particles derived from Lorenz-Mie calculation of OPC scattering (μg/m³),mass concentration of particles derived from Lorenz-Mie calculation of OPC scattering (μg/m³)
DateTimeUTC,F1_M11,P_M11,Q1_M11,Q2_M11,T1_M11,T2_M11,T3_M11,T4_M11,T5_M11,U1_M11,ZSPAN_M11,X0_M11,X2_M11,X1_M11
2024-05-12 06:00:00,SystemResetWarning,0824.5,5.00,000.00,024.6,022.3,000.0,033.3,025.7,020.8,0000.0,0015.67,0005.34,0004.46
2024-05-12 06:01:00,SystemResetWarning,0824.5,5.00,000.00,024.6,022.7,000.0,033.2,026.0,020.7,0000.0,0015.34,0005.37,0004.44
2024-05-12 06:02:00,SystemResetWarning,0824.5,5.00,000.00,024.6,023.0,000.0,033.2,026.1,020.6,0000.0,0015.85,0005.38,0004.42
2024-05-12 06:03:00,SystemResetWarning,0824.5,5.00,000.00,024.6,023.3,000.0,033.1,026.3,020.5,0000.0,0015.93,0005.36,0004.39
2024-05-12 06:04:00,SystemResetWarning,0824.5,4.99,000.00,024.7,023.5,000.0,033.1,026.3,020.7,0000.0,0016.11,0005.32,0004.37
2024-05-12 06:05:00,SystemResetWarning,0824.5,4.99,000.00,024.7,023.7,000.0,033.1,026.4,020.7,0000.0,0015.86,0005.30,0004.36
2024-05-12 06:06:00,SystemResetWarning,0824.6,4.99,000.00,024.8,023.9,000.0,033.1,026.5,020.6,0000.0,0015.54,0005.26,0004.35
2024-05-12 06:07:00,SystemResetWarning,0824.5,4.99,000.00,024.8,024.0,000.0,033.1,026.6,020.6,0000.0,0015.06,0005.24,0004.33
2024-05-12 06:08:00,SystemResetWarning,0824.5,5.00,000.00,024.9,024.2,000.0,033.1,026.6,020.5,0000.0,0014.14,0005.27,0004.30
2024-05-12 06:09:00,SystemResetWarning,0824.5,5.00,000.00,024.9,024.3,000.0,033.1,026.7,020.4,0000.0,0014.13,0005.23,0004.28
2024-05-12 06:10:00,SystemResetWarning,0824.5,5.00,000.00,025.0,024.4,000.0,033.1,026.8,020.3,0000.0,0014.42,0005.20,0004.26
2024-05-12 06:11:00,SystemResetWarning,0824.5,5.00,000.00,025.0,024.4,000.0,033.1,026.8,020.3,0000.7,0014.75,0005.15,0004.24
2024-05-12 06:12:00,SystemResetWarning,0824.5,5.00,000.00,025.1,024.5,000.0,033.1,026.9,020.2,0001.1,0014.78,0005.07,0004.21
2024-05-12 06:13:00,SystemResetWarning,0824.5,5.01,000.00,025.1,024.6,000.0,033.2,026.9,020.1,0003.8,0014.16,0005.02,0004.20
2024-05-12 06:14:00,SystemResetWarning,0824.5,5.00,000.00,025.1,024.7,000.0,033.2,027.0,020.1,0003.8,0013.86,0005.02,0004.19
2024-05-12 06:15:00,SystemResetWarning,0824.5,4.99,000.00,025.2,024.7,000.0,033.2,027.0,020.2,0003.4,0013.64,0005.02,0004.17
2024-05-12 06:16:00,SystemResetWarning,0824.5,4.99,000.00,025.2,024.8,000.0,033.2,027.0,020.2,0003.3,0013.96,0005.01,0004.16
2024-05-12 06:17:00,SystemResetWarning,0824.4,5.01,000.00,025.3,024.8,000.0,033.3,027.1,020.2,0003.6,0013.87,0004.98,0004.13
2024-05-12 06:18:00,SystemResetWarning,0824.4,5.01,000.00,025.3,024.9,000.0,033.3,027.1,020.3,0003.8,0013.72,0004.96,0004.13
2024-05-12 06:19:00,SystemResetWarning,0824.4,5.01,000.00,025.3,024.9,000.0,033.3,027.1,020.2,0004.1,0013.54,0004.94,0004.12
2024-05-12 06:20:00,SystemResetWarning,0824.4,5.00,000.00,025.4,024.9,000.0,033.4,027.2,020.1,0004.2,0012.69,0004.94,0004.10
2024-05-12 06:21:00,SystemResetWarning,0824.4,4.99,000.00,025.4,025.0,000.0,033.4,027.2,020.1,0004.5,0012.43,0004.96,0004.08
2024-05-12 06:22:00,SystemResetWarning,0824.4,5.00,000.00,025.4,025.0,000.0,033.5,027.3,020.1,0002.7,0012.07,0004.95,0004.06
2024-05-12 06:23:00,SystemResetWarning,0824.4,5.00,000.00,025.5,025.0,000.0,033.5,027.2,020.2,0000.0,0011.33,0004.98,0004.05
2024-05-12 06:24:00,SystemResetWarning,0824.4,5.00,000.00,025.3,023.1,000.0,033.6,026.3,020.6,0000.0,0011.29,0004.97,0004.03
2024-05-12 06:25:00,SystemResetWarning,0824.4,5.01,000.00,024.8,021.8,000.0,033.6,025.6,021.3,0000.0,0011.81,0004.95,0004.02
2024-05-12 06:26:00,SystemResetWarning,0824.4,5.01,000.00,024.6,021.9,000.0,033.5,025.5,021.6,0000.0,0012.17,0004.93,0004.01
2024-05-12 06:27:00,SystemResetWarning,0824.3,5.00,000.00,024.6,022.3,000.0,033.4,025.7,021.6,0000.0,0012.30,0004.91,0003.99
2024-05-12 06:28:00,SystemResetWarning,0824.4,5.00,000.00,024.6,022.7,000.0,033.3,026.0,021.4,0000.0,0012.44,0004.88,0003.97
2024-05-12 06:29:00,SystemResetWarning,0824.4,5.00,000.00,024.6,023.0,000.0,033.2,026.2,021.5,0000.0,0012.53,0004.93,0003.97
2024-05-12 06:30:00,SystemResetWarning,0824.4,5.01,000.00,024.7,023.3,000.0,033.1,026.3,021.7,0000.0,0012.60,0004.91,0003.96
2024-05-12 06:31:00,SystemResetWarning,0824.4,5.00,000.00,024.7,023.6,000.0,033.1,026.4,021.8,0000.0,0012.50,0004.89,0003.96
2024-05-12 06:32:00,SystemResetWarning,0824.4,5.00,000.00,024.8,023.8,000.0,033.1,026.5,021.7,0000.0,0012.35,0004.86,0003.95
2024-05-12 06:33:00,SystemResetWarning,0824.4,5.00,000.00,024.8,024.0,000.0,033.1,026.6,021.7,0000.0,0012.30,0004.85,0003.94
2024-05-12 06:34:00,SystemResetWarning,0824.4,5.00,000.00,024.9,024.1,000.0,033.1,026.7,022.6,0000.0,0012.88,0004.83,0003.94
2024-05-12 06:35:00,SystemResetWarning,0824.4,5.00,000.00,024.9,024.2,000.0,033.1,026.7,023.4,0000.0,0012.52,0004.84,0003.95
2024-05-12 06:36:00,SystemResetWarning,0824.4,5.00,000.00,025.0,024.3,000.0,033.1,026.8,023.8,0000.0,0011.89,0004.82,0003.95
2024-05-12 06:37:00,SystemResetWarning,0824.4,5.01,000.00,025.0,024.4,000.0,033.1,026.8,024.0,0000.0,0011.41,0004.80,0003.95
2024-05-12 06:38:00,SystemResetWarning,0824.4,5.00,000.00,025.0,024.5,000.0,033.2,026.8,024.2,0000.0,0011.31,0004.78,0003.95
2024-05-12 06:39:00,SystemResetWarning,0824.4,4.99,000.00,025.1,024.6,000.0,033.2,026.9,024.2,0000.0,0011.53,0004.77,0003.94
2024-05-12 06:40:00,SystemResetWarning,0824.4,5.00,000.00,025.1,024.6,000.0,033.2,026.9,023.7,0000.0,0011.70,0004.73,0003.93
2024-05-12 06:41:00,SystemResetWarning,0824.3,5.00,000.00,025.2,024.7,000.0,033.3,027.0,022.9,0000.0,0011.68,0004.71,0003.92
2024-05-12 06:42:00,SystemResetWarning,0824.3,5.00,000.00,025.2,024.7,000.0,033.3,027.0,023.0,0000.0,0012.43,0004.76,0003.92
2024-05-12 06:43:00,SystemResetWarning,0824.4,5.00,000.00,025.2,024.8,000.0,033.4,027.1,022.5,0000.0,0012.50,0004.76,0003.92
2024-05-12 06:44:00,SystemResetWarning,0824.4,5.00,000.00,025.3,024.8,000.0,033.4,027.1,022.8,0000.0,0012.50,0004.75,0003.92
2024-05-12 06:45:00,SystemResetWarning,0824.4,5.01,000.00,025.3,024.8,000.0,033.4,027.1,023.3,0000.0,0012.38,0004.71,0003.91
2024-05-12 06:46:00,SystemResetWarning,0824.4,5.01,000.00,025.3,024.9,000.0,033.4,027.1,023.0,0000.0,0012.48,0004.69,0003.89
2024-05-12 06:47:00,SystemResetWarning,0824.4,4.99,000.00,025.4,024.9,000.0,033.5,027.2,022.9,0000.0,0012.45,0004.66,0003.87
2024-05-12 06:48:00,SystemResetWarning,0824.4,5.00,000.00,025.4,025.0,000.0,033.5,027.2,022.3,0000.0,0012.23,0004.66,0003.86
2024-05-12 06:49:00,SystemResetWarning,0824.4,4.99,000.00,025.4,025.0,000.0,033.5,027.2,022.1,0000.0,0011.78,0004.66,0003.86
2024-05-12 06:50:00,SystemResetWarning,0824.4,4.99,000.00,025.4,025.0,000.0,033.6,027.3,022.0,0000.0,0012.50,0004.71,0003.87
2024-05-12 06:51:00,SystemResetWarning,0824.4,5.01,000.00,025.5,025.0,000.0,033.6,027.3,021.6,0000.0,0012.29,0004.70,0003.87
2024-05-12 06:52:00,SystemResetWarning,0824.4,4.99,000.00,025.4,023.8,000.0,033.7,026.6,021.6,0000.0,0012.35,0004.76,0003.88
2024-05-12 06:53:00,SystemResetWarning,0824.4,5.01,000.00,024.9,021.9,000.0,033.7,025.6,022.2,0000.0,0012.13,0004.75,0003.88
2024-05-12 06:54:00,SystemResetWarning,0824.4,5.01,000.00,024.7,021.9,000.0,033.6,025.5,023.1,0000.0,0012.27,0004.75,0003.88
2024-05-12 06:55:00,SystemResetWarning,0824.4,4.98,000.00,024.6,022.2,000.0,033.5,025.7,022.6,0000.0,0012.29,0004.75,0003.88
2024-05-12 06:56:00,SystemResetWarning,0824.3,5.00,000.00,024.6,022.6,000.0,033.3,025.9,023.3,0000.0,0011.64,0004.74,0003.89
2024-05-12 06:57:00,SystemResetWarning,0824.4,5.01,000.00,024.6,022.9,000.0,033.2,026.1,023.5,0000.0,0012.00,0004.74,0003.90
2024-05-12 06:58:00,SystemResetWarning,0824.4,5.00,000.00,024.7,023.3,000.0,033.2,026.3,023.3,0000.0,0012.49,0004.77,0003.91
2024-05-12 06:59:00,SystemResetWarning,0824.4,5.00,000.00,024.7,023.5,000.0,033.2,026.4,023.5,0000.0,0012.61,0004.80,0003.92
